Location: Perryvale
(54.4667°N, 113.3833°W)
Time: 19:14:22
(UTC+00:00)

Vanguard 1 Rocket - Pass Details

Date: 19 May 2024
Orbit: 649 x 4220 km, 34.3° (Epoch: 19 June)

Event Time Altitude Azimuth Distance (km) Brightness Sun altitude
Rises 17:25:47 0° 222° (SW) 7,646 12.1 48.2°
Reaches altitude 10° 17:33:10 10° 210° (SSW) 6,006 11.8 49.0°
Maximum altitude 17:44:21 22° 169° (S) 3,893 11.6 50.1°
Drops below altitude 10° 17:51:49 10° 124° (SE) 3,857 11.4 50.8°
Sets 17:55:10 0° 109° (ESE) 4,400 11.4 51.1°
